Location: Chin
(49.7667°N, 112.4500°W)
Time: 10:30:28
(UTC+00:00)

Envisat - Pass Details

Date: 28 November 2021
Orbit: 764 x 766 km, 98.2° (Epoch: 24 January)

Event Time Altitude Azimuth Distance (km) Brightness Sun altitude
Rises 12:34:29 0° 15° (NNE) 3,247 6.4 -23.1°
Reaches altitude 10° 12:36:48 10° 17° (NNE) 2,316 5.6 -22.7°
Maximum altitude 12:41:55 76° 103° (ESE) 793 3.1 -21.9°
Drops below altitude 10° 12:46:59 10° 190° (S) 2,298 5.5 -21.1°
Sets 12:49:17 0° 192° (SSW) 3,219 6.2 -20.7°
